FW8254 Weather Reports


time (UTC)temp
C
wind
direction
speed
KPH
gust
KPH
rain 1hr
cm
rain 24hr
cm
rain mn
cm
humidity
%
barometer
mb
20260508174052 21 57 1.6 3.2 0.00 0.00 0.00 44 1012.0
20260508173549 21 51 0.0 1.6 0.00 0.00 0.00 47 1011.9
20260508173045 21 85 3.2 3.2 0.00 0.00 0.00 45 1011.9
20260508172542 21 56 0.0 8.0 0.00 0.00 0.00 44 1011.9
20260508172039 21 32 0.0 1.6 0.00 0.00 0.00 44 1012.4
20260508171535 21 49 1.6 3.2 0.00 0.00 0.00 46 1012.2
20260508171032 21 46 0.0 1.6 0.00 0.00 0.00 48 1012.3
20260508170529 21 65 1.6 3.2 0.00 0.00 0.00 48 1012.5
20260508170026 21 81 3.2 3.2 0.00 0.00 0.00 46 1012.4
20260508165523 20 59 1.6 8.0 0.00 0.00 0.00 48 1012.7
20260508165020 20 59 0.0 1.6 0.00 0.00 0.00 51 1012.9
20260508164517 20 58 1.6 1.6 0.00 0.00 0.00 51 1012.8
20260508164013 20 58 1.6 1.6 0.00 0.00 0.00 51 1012.6
20260508163511 20 61 1.6 3.2 0.00 0.00 0.00 51 1012.9
20260508163007 20 64 0.0 1.6 0.00 0.00 0.00 50 1013.1
20260508162504 20 64 1.6 1.6 0.00 0.00 0.00 49 1013.2
20260508162001 20 57 1.6 3.2 0.00 0.00 0.00 50 1013.0
20260508161458 20 40 0.0 3.2 0.00 0.00 0.00 49 1012.9
20260508160955 20 57 1.6 3.2 0.00 0.00 0.00 49 1013.2
20260508160454 20 58 3.2 3.2 0.00 0.00 0.00 50 1013.3
20260508155950 20 54 0.0 3.2 0.00 0.00 0.00 50 1013.1
20260508155447 20 15 1.6 4.8 0.00 0.00 0.00 50 1013.0
20260508154944 20 57 0.0 1.6 0.00 0.00 0.00 51 1013.3
20260508154442 20 108 3.2 3.2 0.00 0.00 0.00 52 1013.2
20260508153938 20 79 3.2 3.2 0.00 0.00 0.00 50 1013.5
20260508153435 20 66 1.6 3.2 0.00 0.00 0.00 51 1013.6
20260508152931 20 57 0.0 3.2 0.00 0.00 0.00 51 1013.6
20260508152428 20 60 0.0 3.2 0.00 0.00 0.00 50 1013.4
20260508151924 20 80 3.2 3.2 0.00 0.00 0.00 51 1013.5
20260508151422 19 74 0.0 4.8 0.00 0.00 0.00 53 1013.4
20260508150918 19 51 1.6 3.2 0.00 0.00 0.00 52 1013.4
20260508150414 18 78 3.2 3.2 0.00 0.00 0.00 54 1013.5
20260508145910 19 80 1.6 3.2 0.00 0.00 0.00 56 1013.3
20260508145407 18 60 0.0 1.6 0.00 0.00 0.00 55 1013.4
20260508144904 18 60 1.6 3.2 0.00 0.00 0.00 53 1013.5
20260508144402 18 56 0.0 1.6 0.00 0.00 0.00 55 1013.5
20260508143859 18 57 0.0 1.6 0.00 0.00 0.00 56 1013.6
20260508143356 18 53 0.0 3.2 0.00 0.00 0.00 58 1013.5
20260508142853 18 67 1.6 3.2 0.00 0.00 0.00 56 1013.6
20260508142350 18 59 1.6 3.2 0.00 0.00 0.00 56 1013.3
20260508141846 18 65 1.6 3.2 0.00 0.00 0.00 56 1013.6
20260508141343 18 61 1.6 1.6 0.00 0.00 0.00 58 1013.6
20260508140841 18 60 1.6 1.6 0.00 0.00 0.00 60 1013.6
20260508140337 18 59 1.6 1.6 0.00 0.00 0.00 61 1013.6
20260508135833 17 59 0.0 1.6 0.00 0.00 0.00 59 1013.8
20260508135330 17 80 1.6 3.2 0.00 0.00 0.00 58 1013.6
20260508134826 17 76 1.6 3.2 0.00 0.00 0.00 57 1013.8
20260508134322 18 76 3.2 3.2 0.00 0.00 0.00 58 1013.3
20260508133819 18 72 1.6 3.2 0.00 0.00 0.00 60 1013.6
20260508133317 18 58 1.6 3.2 0.00 0.00 0.00 63 1013.5
20260508132814 18 66 1.6 1.6 0.00 0.00 0.00 64 1013.5
20260508132312 18 55 1.6 1.6 0.00 0.00 0.00 67 1013.4
20260508131808 18 69 1.6 3.2 0.00 0.00 0.00 66 1013.5
20260508131304 18 61 0.0 1.6 0.00 0.00 0.00 64 1013.5
20260508130800 18 54 1.6 1.6 0.00 0.00 0.00 68 1013.3
20260508130258 17 48 0.0 3.2 0.00 0.00 0.00 70 1013.2
20260508125754 17 103 4.8 4.8 0.00 0.00 0.00 71 1013.2
20260508125250 16 49 0.0 4.8 0.00 0.00 0.00 74 1013.1
20260508124749 16 67 0.0 3.2 0.00 0.00 0.00 81 1012.9
20260508124245 15 74 1.6 3.2 0.00 0.00 0.00 86 1012.8
20260508123743 15 71 1.6 1.6 0.00 0.00 0.00 90 1012.9
20260508123241 15 58 0.0 0.0 0.00 0.00 0.00 91 1013.0
20260508122737 15 58 0.0 0.0 0.00 0.00 0.00 91 1012.9
20260508122234 15 58 0.0 0.0 0.00 0.00 0.00 91 1012.8
20260508121731 15 58 0.0 0.0 0.00 0.00 0.00 91 1012.8
20260508121230 14 58 0.0 0.0 0.00 0.00 0.00 91 1012.7
20260508120726 14 58 0.0 0.0 0.00 0.00 0.00 91 1013.0
20260508120225 13 58 0.0 0.0 0.00 0.00 0.00 91 1012.6
20260508115722 13 58 0.0 0.0 0.00 0.00 0.00 91 1012.7
20260508115220 13 58 0.0 0.0 0.00 0.00 0.00 90 1012.5
20260508114716 13 58 0.0 0.0 0.00 0.00 0.00 90 1012.4
20260508114213 13 58 0.0 0.0 0.00 0.00 0.00 90 1012.6
20260508113709 13 58 0.0 0.0 0.00 0.00 0.00 90 1012.4
20260508113208 13 58 0.0 0.0 0.00 0.00 0.00 90 1012.1
20260508112703 13 58 0.0 0.0 0.00 0.00 0.00 90 1012.1
20260508112200 13 58 0.0 0.0 0.00 0.00 0.00 90 1012.0
20260508111657 13 58 0.0 0.0 0.00 0.00 0.00 90 1011.7
20260508111155 13 58 0.0 0.0 0.00 0.00 0.00 90 1011.8
20260508110652 13 58 0.0 0.0 0.00 0.00 0.00 90 1011.5
20260508110149 13 58 0.0 0.0 0.00 0.00 0.00 90 1011.5
20260508105643 13 58 0.0 0.0 0.00 0.00 0.00 90 1011.8
20260508105140 13 58 0.0 0.0 0.00 0.00 0.00 90 1011.5
20260508104638 13 58 0.0 0.0 0.00 0.00 0.00 90 1011.6
20260508104134 13 58 0.0 0.0 0.00 0.00 0.00 90 1011.3
20260508103626 12 58 0.0 0.0 0.00 0.00 0.00 89 1011.2
20260508103123 13 58 0.0 0.0 0.00 0.00 0.00 89 1011.2
20260508102620 13 58 0.0 0.0 0.00 0.00 0.00 89 1010.9
20260508102119 13 58 0.0 0.0 0.00 0.00 0.00 89 1010.8
20260508101616 13 58 0.0 0.0 0.00 0.00 0.00 89 1010.9
20260508101113 13 58 0.0 0.0 0.00 0.00 0.00 89 1010.7
20260508100610 13 58 0.0 0.0 0.00 0.00 0.00 89 1010.5
20260508100108 13 58 0.0 0.0 0.00 0.00 0.00 89 1010.6
20260508095604 13 58 0.0 0.0 0.00 0.00 0.00 89 1010.4
20260508095101 13 58 0.0 0.0 0.00 0.00 0.00 89 1010.5
20260508094558 13 58 0.0 0.0 0.00 0.00 0.00 89 1010.5
20260508094055 13 58 0.0 0.0 0.00 0.00 0.00 88 1010.3
20260508093552 13 58 0.0 0.0 0.00 0.00 0.00 88 1010.4
20260508093050 13 58 0.0 0.0 0.00 0.00 0.00 88 1010.4
20260508092547 13 58 0.0 0.0 0.00 0.00 0.00 88 1010.5
20260508092046 13 58 0.0 0.0 0.00 0.00 0.00 88 1010.3
20260508091542 14 58 0.0 0.0 0.00 0.00 0.00 88 1010.4
20260508091039 14 58 0.0 0.0 0.00 0.00 0.00 88 1010.3
20260508090538 14 58 0.0 0.0 0.00 0.00 0.00 87 1010.2
20260508090034 14 58 0.0 0.0 0.00 0.00 0.00 87 1010.2
20260508085530 14 58 0.0 0.0 0.00 0.00 0.00 87 1010.2
20260508085028 14 58 0.0 0.0 0.00 0.00 0.00 87 1010.2
20260508084524 14 58 0.0 0.0 0.00 0.00 0.00 86 1010.1
20260508084022 14 58 0.0 0.0 0.00 0.00 0.00 86 1010.1
20260508083519 15 58 0.0 0.0 0.00 0.00 0.00 86 1010.1
20260508083015 15 58 0.0 0.0 0.00 0.00 0.00 86 1010.2
20260508082511 15 58 0.0 0.0 0.00 0.00 0.00 85 1010.1
20260508082009 15 58 0.0 0.0 0.00 0.00 0.00 85 1010.0
20260508081506 15 58 0.0 0.0 0.00 0.00 0.00 85 1009.9
20260508081002 15 58 0.0 0.0 0.00 0.00 0.00 84 1009.8
20260508080500 15 58 0.0 0.0 0.00 0.00 0.00 84 1010.0
20260508075957 15 58 0.0 0.0 0.00 0.00 0.00 84 1009.9
20260508075454 15 58 0.0 0.0 0.00 0.00 0.00 84 1009.9
20260508074951 15 58 0.0 0.0 0.00 0.00 0.00 83 1009.8
20260508074449 15 58 0.0 0.0 0.00 0.00 0.00 83 1009.7
20260508073945 15 58 0.0 0.0 0.00 0.00 0.00 83 1010.0
20260508073443 15 58 0.0 0.0 0.00 0.00 0.00 83 1009.9
20260508072940 15 58 0.0 0.0 0.00 0.00 0.00 83 1009.8
20260508072436 15 58 0.0 0.0 0.00 0.00 0.00 83 1009.8
20260508071933 15 58 0.0 0.0 0.00 0.00 0.00 82 1009.8
20260508071431 15 58 0.0 0.0 0.00 0.00 0.00 82 1009.8
20260508070929 15 58 0.0 1.6 0.00 0.00 0.00 82 1009.4
20260508070426 15 58 0.0 0.0 0.00 0.00 0.00 82 1009.5
20260508065924 16 58 0.0 0.0 0.00 0.00 0.00 81 1009.7
20260508065422 16 58 0.0 0.0 0.00 0.00 0.00 81 1009.1
20260508064920 16 63 0.0 0.0 0.00 0.00 0.00 81 1009.2
20260508064417 16 63 0.0 1.6 0.00 0.00 0.00 81 1009.3
20260508063914 16 67 0.0 0.0 0.00 0.00 0.00 80 1009.4
20260508063412 16 67 0.0 0.0 0.00 0.00 0.00 80 1009.3
20260508062909 16 67 0.0 1.6 0.00 0.00 0.00 80 1009.5
20260508062407 16 67 0.0 0.0 0.00 0.00 0.00 79 1009.5
20260508061904 16 67 0.0 1.6 0.00 0.00 0.00 79 1009.3
20260508061401 16 67 1.6 3.2 0.00 0.00 0.00 79 1009.5
20260508060857 16 67 0.0 1.6 0.00 0.00 0.00 79 1009.3
20260508060355 16 69 1.6 1.6 0.00 0.00 0.00 79 1009.5
20260508055850 16 67 0.0 1.6 0.00 0.00 0.00 79 1009.7
20260508055348 16 67 1.6 3.2 0.00 0.00 0.00 78 1009.8
20260508054844 16 69 1.6 3.2 0.00 0.00 0.00 79 1009.5
20260508054341 17 68 3.2 3.2 0.00 0.00 0.00 79 1009.3
20260508053838 17 70 1.6 1.6 0.00 0.00 0.00 78 1009.7
20260508053336 17 70 1.6 3.2 0.00 0.00 0.00 78 1009.6
20260508052833 17 63 1.6 3.2 0.00 0.00 0.00 79 1009.5
20260508052331 17 76 3.2 4.8 0.00 0.00 0.00 79 1009.4
20260508051826 17 67 1.6 3.2 0.00 0.00 0.00 80 1009.4
20260508051322 17 68 1.6 3.2 0.00 0.00 0.00 80 1009.4
20260508050818 17 64 0.0 1.6 0.00 0.00 0.00 80 1009.3
20260508050315 17 63 0.0 1.6 0.00 0.00 0.00 79 1009.2
20260508045811 18 58 0.0 1.6 0.00 0.00 0.00 79 1009.2
20260508045309 18 58 0.0 0.0 0.00 0.00 0.00 79 1009.3
20260508044807 18 58 1.6 1.6 0.00 0.00 0.00 78 1009.3
20260508044303 18 57 0.0 1.6 0.00 0.00 0.00 78 1009.1
20260508043759 18 57 0.0 0.0 0.00 0.00 0.00 77 1009.2
20260508043256 18 57 0.0 0.0 0.00 0.00 0.00 77 1009.0
20260508042753 18 58 1.6 1.6 0.00 0.00 0.00 76 1008.9
20260508042251 18 57 0.0 1.6 0.00 0.00 0.00 76 1008.7
20260508041747 18 57 0.0 1.6 0.00 0.00 0.00 75 1008.8
20260508041244 18 67 1.6 3.2 0.00 0.00 0.00 76 1008.7
20260508040740 18 55 0.0 1.6 0.00 0.00 0.00 75 1008.7
20260508040237 18 54 1.6 1.6 0.00 0.00 0.00 75 1009.0
20260508035735 18 52 0.0 1.6 0.00 3.96 3.96 76 1008.5
20260508035232 18 52 1.6 1.6 0.00 3.96 3.96 77 1008.7
20260508034729 18 44 0.0 1.6 0.00 3.96 3.96 77 1008.7
20260508034226 18 42 0.0 0.0 0.00 3.96 3.96 77 1008.8
20260508033723 18 42 0.0 0.0 0.00 3.96 3.96 76 1008.6
20260508033221 19 43 0.0 0.0 0.00 3.96 3.96 75 1008.7
20260508032719 19 42 0.0 0.0 0.00 3.96 3.96 74 1008.7
20260508032216 20 28 1.6 4.8 0.00 3.96 3.96 75 1008.5
20260508031712 20 304 4.8 9.7 0.00 3.96 3.96 73 1008.4
20260508031208 20 303 6.4 8.0 0.00 3.96 3.96 73 1008.3
20260508030705 20 293 6.4 11.3 0.00 3.96 3.96 72 1008.5
20260508030203 20 308 6.4 9.7 0.00 3.96 3.96 72 1008.4
20260508025658 20 284 6.4 11.3 0.00 3.96 3.96 72 1008.1
20260508025156 20 293 6.4 11.3 0.00 3.96 3.96 72 1008.1
20260508024652 20 288 8.0 12.9 0.00 3.96 3.96 72 1008.0
20260508024149 20 321 8.0 14.5 0.00 3.96 3.96 72 1008.2
20260508023645 20 293 9.7 12.9 0.00 3.96 3.96 74 1008.0
20260508023143 21 290 8.0 17.7 0.00 3.96 3.96 72 1007.8
20260508022638 20 271 14.5 16.1 0.00 3.96 3.96 72 1008.0
20260508022136 21 324 8.0 14.5 0.00 3.96 3.96 73 1007.9
20260508021632 21 287 8.0 14.5 0.00 3.96 3.96 74 1007.7
20260508021127 21 290 12.9 12.9 0.00 3.96 3.96 73 1007.7
20260508020626 21 327 8.0 14.5 0.00 3.96 3.96 72 1007.2
20260508020123 21 300 11.3 12.9 0.00 3.96 3.96 72 1007.2
20260508015620 21 287 11.3 16.1 0.00 3.96 3.96 72 1007.2
20260508015116 21 282 9.7 14.5 0.00 3.96 3.96 72 1006.9
20260508014613 21 290 8.0 14.5 0.00 3.96 3.96 71 1006.7
20260508014110 21 273 11.3 12.9 0.00 3.96 3.96 72 1006.8
20260508013606 21 298 8.0 11.3 0.00 3.96 3.96 72 1006.7
20260508013103 21 310 8.0 12.9 0.00 3.96 3.96 73 1006.5
20260508012601 21 286 9.7 12.9 0.00 3.96 3.96 72 1006.6
20260508012057 21 284 8.0 14.5 0.00 3.96 3.96 73 1006.4
20260508011556 21 293 6.4 8.0 0.00 3.96 3.96 73 1006.2
20260508011053 21 340 4.8 8.0 0.00 3.96 3.96 73 1006.0
20260508010549 21 296 6.4 9.7 0.00 3.96 3.96 72 1006.0
20260508010047 22 304 8.0 8.0 0.00 3.96 3.96 72 1005.7
20260508005543 22 307 6.4 9.7 0.00 3.96 3.96 70 1005.9
20260508005040 22 293 8.0 9.7 0.00 3.96 3.96 70 1005.7
20260508004536 22 294 8.0 9.7 0.00 3.96 3.96 69 1005.6
20260508004033 22 282 8.0 11.3 0.00 3.96 3.96 69 1005.4
20260508003530 22 281 8.0 11.3 0.00 3.96 3.96 68 1005.3
20260508003027 22 291 8.0 14.5 0.00 3.96 3.96 69 1005.2
20260508002523 22 296 11.3 12.9 0.00 3.96 3.96 68 1005.3
20260508002021 22 284 8.0 11.3 0.00 3.96 3.96 67 1005.1
20260508001516 23 283 11.3 11.3 0.00 3.96 3.96 67 1005.1
20260508001013 23 284 12.9 14.5 0.00 3.96 3.96 66 1004.9
20260508000509 23 311 17.7 20.9 0.00 3.96 3.96 64 1004.8
20260508000006 23 281 11.3 16.1 0.00 3.96 3.96 66 1004.7
20260507235503 23 284 12.9 16.1 0.00 3.96 3.96 65 1004.6
20260507235000 23 262 11.3 17.7 0.00 3.96 3.96 65 1004.4
20260507234456 23 286 12.9 16.1 0.00 3.96 3.96 65 1004.4
20260507233953 23 294 11.3 17.7 0.00 3.96 3.96 65 1004.2
20260507233450 23 288 12.9 20.9 0.00 3.96 3.96 65 1004.2
20260507232948 24 287 11.3 17.7 0.00 3.96 3.96 66 1004.3
20260507232444 24 278 14.5 17.7 0.00 3.96 3.96 64 1004.1
20260507231942 24 284 14.5 17.7 0.00 3.96 3.96 65 1004.2
20260507231438 24 277 17.7 24.1 0.00 3.96 3.96 63 1004.3
20260507230935 24 287 17.7 24.1 0.00 3.96 3.96 63 1004.2
20260507230432 25 295 19.3 24.1 0.00 3.96 3.96 64 1004.2
20260507225932 25 284 12.9 25.7 0.00 3.96 3.96 63 1004.0
20260507225428 25 284 14.5 20.9 0.00 3.96 3.96 64 1004.1
20260507224925 25 282 9.7 17.7 0.00 3.96 3.96 63 1004.0
20260507224421 25 284 17.7 24.1 0.00 3.96 3.96 63 1003.9
20260507223918 25 284 12.9 32.2 0.00 3.96 3.96 64 1003.9
20260507223414 25 269 20.9 33.8 0.00 3.96 3.96 65 1003.9
20260507222911 25 224 17.7 22.5 0.00 3.96 3.96 66 1004.0
20260507222408 25 263 22.5 32.2 0.00 3.96 3.96 64 1004.0
20260507221905 25 227 16.1 25.7 0.00 3.96 3.96 65 1004.0
20260507221401 25 286 20.9 27.4 0.00 3.96 3.96 65 1003.6
20260507220857 25 262 11.3 22.5 0.00 3.96 3.96 65 1003.8
20260507220355 25 277 16.1 22.5 0.00 3.96 3.96 67 1003.6
20260507215851 25 271 11.3 24.1 0.00 3.96 3.96 65 1003.9
20260507215348 25 232 14.5 22.5 0.00 3.96 3.96 68 1003.8
20260507214845 25 254 12.9 14.5 0.00 3.96 3.96 68 1003.6
20260507214343 25 286 11.3 14.5 0.00 3.96 3.96 70 1003.7
20260507213838 25 280 12.9 12.9 0.00 3.96 3.96 68 1003.8
20260507213335 25 288 12.9 14.5 0.00 3.96 3.96 69 1003.5
20260507212831 25 291 16.1 22.5 0.00 3.96 3.96 68 1003.6
20260507212327 25 281 16.1 17.7 0.00 3.96 3.96 69 1003.7
20260507211824 25 276 11.3 22.5 0.00 3.96 3.96 69 1003.6
20260507211321 25 246 14.5 22.5 0.00 3.96 3.96 69 1003.7
20260507210818 25 277 12.9 14.5 0.00 3.96 3.96 70 1003.5
20260507210315 25 238 11.3 14.5 0.00 3.96 3.96 69 1003.8
20260507205811 25 248 12.9 22.5 0.00 3.96 3.96 70 1003.6
20260507205308 25 279 8.0 9.7 0.00 3.96 3.96 70 1003.5
20260507204804 25 251 9.7 20.9 0.00 3.96 3.96 69 1003.6
20260507204302 25 303 9.7 14.5 0.00 3.96 3.96 69 1003.6
20260507203800 25 280 14.5 17.7 0.00 3.96 3.96 68 1003.7
20260507203258 25 296 8.0 16.1 0.00 3.96 3.96 68 1003.6
20260507202753 24 294 8.0 17.7 0.00 3.96 3.96 68 1003.8
20260507202249 24 284 9.7 14.5 0.00 3.96 3.96 70 1003.9
20260507201744 24 282 14.5 20.9 0.00 3.96 3.96 69 1004.3
20260507201241 24 284 22.5 32.2 0.00 3.96 3.96 70 1004.4
20260507200737 24 281 16.1 24.1 0.00 3.96 3.96 68 1004.4
20260507200228 24 283 16.1 17.7 0.00 3.96 3.96 68 1004.4
20260507195724 24 264 16.1 25.7 0.00 3.96 3.96 70 1004.3
20260507195221 23 275 22.5 29.0 0.00 3.96 3.96 71 1004.3
20260507194719 23 289 16.1 17.7 0.00 3.96 3.96 72 1004.3
20260507194215 23 286 14.5 24.1 0.00 3.96 3.96 72 1004.4
20260507193712 23 273 16.1 27.4 0.00 3.96 3.96 73 1004.3
20260507193208 23 296 11.3 20.9 0.00 3.96 3.96 74 1004.2
20260507192704 23 289 12.9 17.7 0.00 3.96 3.96 74 1004.7
20260507192202 23 277 12.9 17.7 0.00 3.96 3.96 75 1004.5
20260507191657 23 277 12.9 22.5 0.00 3.96 3.96 75 1004.5
20260507191154 23 295 17.7 20.9 0.00 3.96 3.96 76 1004.3
20260507190651 23 277 11.3 24.1 0.00 3.96 3.96 77 1004.2
20260507190150 23 297 12.9 16.1 0.00 3.96 3.96 78 1004.4
20260507185648 23 278 16.1 25.7 0.00 3.96 3.96 77 1004.4
20260507185144 22 317 8.0 14.5 0.00 3.96 3.96 78 1004.3
20260507184642 22 287 12.9 14.5 0.00 3.96 3.96 81 1004.6
20260507184140 22 279 11.3 12.9 0.00 3.96 3.96 79 1004.0
20260507183636 22 289 12.9 17.7 0.00 3.96 3.96 81 1004.2
20260507183133 22 287 9.7 14.5 0.00 3.96 3.96 83 1004.3
20260507182629 22 282 9.7 11.3 0.00 3.96 3.96 83 1004.2
20260507182126 22 294 11.3 11.3 0.00 3.96 3.96 83 1004.2
20260507181622 22 285 4.8 9.7 0.00 3.96 3.96 85 1004.5
20260507181118 21 281 11.3 25.7 0.00 3.96 3.96 85 1004.8
20260507180615 21 286 11.3 20.9 0.00 3.96 3.96 85 1004.7
20260507180112 21 270 16.1 16.1 0.00 3.96 3.96 86 1004.8
20260507175608 21 285 14.5 17.7 0.00 3.96 3.96 87 1004.9
20260507175106 21 296 8.0 9.7 0.00 3.96 3.96 88 1004.7
20260507174602 21 296 12.9 14.5 0.00 3.96 3.96 87 1004.8